Погода Свободный

Погода Свободный : погода сейчас, прогноз погоды и архив. Всё, что Вы хотите узнать о погоде Свободный!

Хотите узнать прогноз погоды Свободный? Тогда Вам сюда: Погода Свободный

Поиск расширенной информации на нашем сайте:

Другие новости

Новости СМИ2

Главная страница сайта

Новости сайта

03.07.2017

Напоминаем, что на нашем специализированном сайте Метеоцентр.Азия вы можете получить высокодетализированные автоматические прогнозы погоды по пунктам России, СНГ и мира в авиационном формате (включающие направление и скорость ветра, видимость, явления погоды, количество и форму облачности, нижнюю и верхнюю границу облачности).

Рекомендуем: калькулятор стоимости пластиковых окон спб

Погода Свободный - сегодня

Время (UTC), дата Ветер
(°,м/с) 
Видим.   Явления Облачность Т
(°С)
Тd
(°С)
f(%) Тe
(°С)
Pmin
(гПа)
dP
(гПа)
Po
(мм)
O2
(г/м3)
Тmin Tmax R s Состояние
почвы
09 09.12.17 тихо ()   35000 м    4/0 верхняя 
[Ci sp]
-27.5 -30.6 75 -28  1021.1  1.5  745  336           
12 09.12.17 300 (СЗ) 40000 м    ясно 
-28.8 -32.1 73 -32  1022.2  0.9  746  338    -22.9  0.0     
15 09.12.17 тихо ()   50000 м    ясно 
-29.9 -33.5 71 -30  1022.7  0.4  746  339           
18 09.12.17 300 (СЗ) 50000 м    ясно 
-29.6 -33 72 -30  1022.8  0.1  746  339           
21 09.12.17 300 (СЗ) 50000 м    ясно 
-30.6 -34.1 71 -34  1022.7  -0.2  746  340           
00 10.12.17 290 (З) 20000 м    10/0 верхняя 
[Ci fib]
-30.6 -34.2 71 -36  1023.1  0.4  746  341  -33.5      равномерный
сухой снег
100% 
03 10.12.17 330 (СЗ) 20000 м    10/0 верхняя 
[Ci fib]
-22.6 -27.2 66 -23  1022.1  0.1  746  329           
06 10.12.17 320 (СЗ) 20000 м    8/0 верхняя 
[Ci fib]
-19.5 -25.9 57 -22  1021  -0.8  745  325           
09 10.12.17 320 (СЗ) 50000 м    4/0 верхняя 
[Ci fib]
-21.5 -26.1 66 -24  1022.5  1.2  746  328           
12 10.12.17 300 (СЗ) 50000 м    5/0 верхняя 
[Ci fib]
-22.5 -26.5 70 -27  1022.9  0.3  747  330    -19.3       
15 10.12.17 310 (СЗ) 50000 м    ясно 
-22.3 -25.3 77 -27  1022.7  0.1  746  329           
18 10.12.17 310 (СЗ) 50000 м    ясно 
-22.6 -25.6 76 -26  1022.8  0.1  747  330           
21 10.12.17 310 (СЗ) 50000 м    10/0 верхняя 
[Cs]
-21.1 -24.5 74 -26  1022.6  0.1  746  328           
00 11.12.17 310 (СЗ) 20000 м  {снег}  10/0 средняя, верхняя 
[Ac trans|Ci sp]
-19.9 -24.6 66 -24  1022.9  0.4  747  326  -22.8    0.2  равномерный
сухой снег
100% 
03 11.12.17 320 (СЗ) 20000 м    3/0 верхняя 
[Ci fib]
-17 -24 55 -21  1021.8  -0.8  746  322           
06 11.12.17 320 (СЗ) 4-10{10}  20000 м  позёмок  8/0 верхняя 
[Ci fib]
-15.3 -24.3 46 -20  1020.7  -0.8  746  320           
09 11.12.17 310 (СЗ) 3{10}  50000 м    10/0 верхняя 
[Ci fib]
-17.8 -25.5 51 -22  1021.7  0.6  746  323           
12 11.12.17 320 (СЗ) 50000 м    10/0 верхняя 
[Ci fib]
-19.2 -26.7 51 -23  1021.7  0.1  746  325    -15       
15 11.12.17 320 (СЗ) 50000 м    10/0 верхняя 
[Ci fib]
-19.4 -27.1 50 -24  1021.5  -0.2  746  325           
18 11.12.17 320 (СЗ) 50000 м    10/0 верхняя 
[Ci fib]
-20.3 -27.8 51 -23  1021.9  0.3  746  327           
21 11.12.17 320 (СЗ) 50000 м    10/0 верхняя 
[Ci fib]
-20.5 -27.9 52 -26  1020.8  -1.1  745  326           
00 12.12.17 290 (З) 20000 м    10/0 верхняя 
[Ci sp]
-20.7 -27.8 53 -25  1021.8  0.9  746  327  -21.3      равномерный
сухой снег
100% 
03 12.12.17 310 (СЗ) 3{10}  20000 м  позёмок  10/0 средняя, верхняя 
[Ac trans|Ci sp]
-18.5 -27.3 46 -23  1021.5  0.1  746  324           
06 12.12.17 330 (СЗ) 20000 м    10/0 верхняя 
[Ci sp]
-16 -25.8 43 -18  1021.6  0.3  746  321           
09 12.12.17 300 (СЗ) 50000 м    10/0 верхняя 
[Ci sp]
-17.9 -26.1 49 -24  1023.7  1.9  748  324           
Время (UTC), дата Ветер
(°,м/с) 
Видим.   Явления Облачность Т
(°С)
Тd
(°С)
f(%) Тe
(°С)
Pmin
(гПа)
dP
(гПа)
Po
(мм)
O2
(г/м3)
Тmin Tmax R s Состояние
почвы

Для получения пояснительной информации подведите курсор к названию столбца.

ПОГОДА Свободный - архив

Всё, что Вы хотите узнать о погоде Свободный - удобно и подробно!

Выберите нужную дату (начиная с 1 января 2015* года) и нажмите кнопку "Найти".
Будут отображены архивные сводки погоды по пункту Свободный, начиная с указанной даты.


Отображать данные в формате CSV (для использования в таблицах Excel)


Внимание! Наш архив погоды предназначен исключительно для личного некоммерческого использования в познавательных целях. Если Вам необходимы официальные справки о состоянии погоды (для производственных, юридических, коммерческих и т.п. целей), обращайтесь в органы Росгидромета.

*Примечание: данная дата относится к архиву по метеостанциям СССР (Россия, СНГ, Балтия).
Архив по метеостанциям Зарубежной Европы и Азии (кроме Китая) хранится 10 дней, по другим регионам земного шара (Китай, Африка, Америка, Австралия, Океания) - 1 день.

Свободный - район местоположения метеостанции


Название, широта, долгота, высота метеостанции:
Свободный 51.4°ш. 128.1°д. 197 м над ур. моря [Российская Федерация]

Дополнительная информация

В oтличие oт бoльшинства пoгoдных сайтoв мы публикуем пoдрoбную метеoинфoрмацию в детальнoм прoфессиoнальнoм фoрмате.

Характеристики температуры и влажнoсти вoздуха измеряются на высoте 2 м в тени вдали oт зданий и деревьев.
Скoрoсть ветра измеряется на высoте 10 м (на урoвне рoста челoвека скoрoсть ветра ниже в 1.5-2 раза). Если метеoстанция нахoдится в гoрoде или в лесу, тo скoрoсть ветра занижена на 2-4 м/с пo сравнению с oткрытым местoм. Скoрoсть ветра над акватoриями крупных рек и oзёр, а также на вершинах хoлмoв на 2-5 м/с выше, чем в oбычных услoвиях.
Атмoсфернoе давление в разных тoчках местнoсти мoжет значительнo oтличаться oт давления на метеoстанции, в зависимoсти oт услoвий рельефа (при пoдъёме на 10 м давление пoнижается примернo на 1 мм рт.ст.).